Regional Weather Roundup
Issued by NWS Goodland, KS

Home | Current Version | Previous Version | Text Only | Print | Product List | Glossary Off
Versions: 1 2 3 4 5 6 7 8 9 10 11 12 13 14 15 16 17 18 19 20 21 22 23 24 25 26 27 28 29 30 31 32 33 34 35 36 37 38 39 40 41 42 43 44 45 46 47 48 49 50

000
ASUS43 KGLD 042208
RWRGLD

GOODLAND FORECAST AREA HOURLY WEATHER ROUNDUP
NATIONAL WEATHER SERVICE GOODLAND KS
400 PM MDT FRI SEP 04 2015

...OFFICIAL OBSERVATIONS...

CITY           SKY/WX    TMP DP  RH WIND       PRES   REMARKS
GOODLAND KS    SUNNY     96  44  16 SW13G18   29.87F
HILL CITY KS   SUNNY     99  55  23 S17G25    29.81F
IMPERIAL NEB   SUNNY     93  46  19 SW3       29.85F
MCCOOK NEB     SUNNY     97  56  25 NE7       29.81F
AKRON CO       MOSUNNY   90  39  16 S13       29.92F
BURLINGTON CO  MOSUNNY   89  45  21 S9G21     29.91F
LIMON CO       SUNNY     88  40  18 SE15G35   29.97F
$$

...UNOFFICIAL OBSERVATIONS...

CITY           SKY/WX    TMP DP  RH WIND       PRES   REMARKS
COLBY KS       SUNNY     99  55  23 S15       29.86S
GOVE KS          N/A     95  32  11 MISG        N/A
LENORA KS        N/A     96  32  10 MISG        N/A
NORTON KS      SUNNY     95  48  20 S9G18     29.80S
SHARON SPRINGS   N/A     96  53  23 S9G17       N/A
KIT CARSON CO    N/A     93  48  21 MISG        N/A
YUMA CO          N/A     92  50  23 E9          N/A
$$



USA.gov is the U.S. government's official web portal to all federal, state and local government web resources and services.